Regional Weather Roundup
Issued by NWS

Home | Current Version | Previous Version | Text Only | Print | Product List | Glossary On
Versions: 1 2 3 4 5 6 7 8 9 10 11 12 13 14 15 16 17 18 19 20 21 22 23 24 25 26 27
000
ASUS44 KBMX 171910
RWRAL

ALABAMA REGIONAL WEATHER ROUNDUP
NATIONAL WEATHER SERVICE BIRMINGHAM AL
200 PM CDT TUE OCT 17 2017

NOTE: "FAIR" INDICATES FEW OR NO CLOUDS BELOW 12,000 FEET
WITH NO SIGNIFICANT WEATHER AND/OR OBSTRUCTIONS TO VISIBILITY.

THE REMARK "TC" DENOTES TEMPERATURE IN DEGREES CELSIUS.

ALZ001>011-014-016>018-020-172000-
NORTH ALABAMA

CITY           SKY/WX    TMP DP  RH WIND       PRES   REMARKS
MUSCLE SHOALS  SUNNY     70  42  36 VRB6      30.28F
HUNTSVILLE     MOSUNNY   69  45  41 SE7       30.28F
DECATUR        SUNNY     69  42  37 SE6       30.28F
HALEYVILLE     FAIR      69  46  43 VRB5      30.29F
GADSDEN        NOT AVBL
$$

ALZ012-013-022-023-030>036-040>044-172000-
WEST CENTRAL ALABAMA

CITY           SKY/WX    TMP DP  RH WIND       PRES   REMARKS
TUSCALOOSA     SUNNY     70  47  43 E6        30.25F
DEMOPOLIS        N/A     71  45  38 NE6       30.22F
$$

ALZ015-024>026-033>036-041>044-172000-
CENTRAL ALABAMA

CITY           SKY/WX    TMP DP  RH WIND       PRES   REMARKS
BIRMINGHAM     MOSUNNY   70  41  34 VRB7      30.28F
MONTGOMERY     SUNNY     73  44  35 NE12      30.22F
SHELBY CO ARPT SUNNY     68  46  45 E6        30.25F
MAXWELL AFB    SUNNY     71  45  39 NE5       30.22F
GREENVILLE     FAIR      72  44  36 NE10      30.20F
SELMA          FAIR      72  45  37 E8        30.22F
PRATTVILLE     FAIR      69  46  43 N8        30.22F
BESSEMER       FAIR      67  45  45 NE6       30.26F
TALLADEGA      FAIR      68  46  45 NE9       30.27F
PELL CITY      CLEAR     68  46  45 NE7       30.27F
MARION         FAIR      70  48  46 SE6       30.22F
SYLACAUGA      FAIR      71  48  44 E7        30.25F
$$

ALZ019-021-028-029-037-038-045>048-172000-
EAST CENTRAL ALABAMA

CITY           SKY/WX    TMP DP  RH WIND       PRES   REMARKS
ANNISTON       SUNNY     69  46  43 E7        30.27F
ALEXANDER CITY SUNNY     67  45  44 E6        30.25F
AUBURN         SUNNY     68  43  40 NE9       30.25F
$$

ALZ051>064-172000-
SOUTHWEST ALABAMA

CITY           SKY/WX    TMP DP  RH WIND       PRES   REMARKS
MOBILE         SUNNY     75  56  51 NE12      30.16F
BROOKLEY FIELD SUNNY     76  59  55 NE8       30.16F
EVERGREEN      SUNNY     73  50  44 VRB7      30.19F
$$

ALZ049-050-065>069-172000-
SOUTHEAST ALABAMA

CITY           SKY/WX    TMP DP  RH WIND       PRES   REMARKS
DOTHAN         SUNNY     74  43  32 NE10      30.22F
OZARK          SUNNY     73  45  36 NE14      30.18F
TROY           SUNNY     70  46  42 NE8       30.21F
EUFAULA        FAIR      73  43  33 NE8       30.20F
$$




USA.gov is the U.S. government's official web portal to all federal, state and local government web resources and services.